Nausori, Fiji

9:32 PM FJT on August 29, 2016 (GMT +1200)
Nausori International

Weather History for NFNA - August, 2013

Change the Weather History Date:

Thursday, August 29, 2013

  Actual Average Record
Temperature  
Mean Temperature 73 °F -  
Max Temperature 78 °F - - ()
Min Temperature 68 °F - - ()
Cooling Degree Days 8    
Growing Degree Days 23 (Base 50)    
Moisture  
Dew Point 68 °F    
Average Humidity 82    
Maximum Humidity 95    
Minimum Humidity 61    
Precipitation  
Precipitation 0.00 in - - ()
Sea Level Pressure  
Sea Level Pressure 29.99 in    
Wind  
Wind Speed 2 mph ()    
Max Wind Speed 10 mph    
Max Gust Speed -    
Visibility 7.1 miles    
Events      
T = Trace of Precipitation, MM = Missing Value Source: Averaged Metar Reports

Daily Weather History Graph

Daily Weather History Graph

Search for Another Location

Airport or City:

Trip Planner

Search our weather history database for the weather conditions in past years. The results will help you decide how hot, cold, wet, or windy it might be!

Date:

Astronomy

Aug. 29, 2013 Rise Set
Actual Time 6:15 AM FJT 5:58 PM FJT
Civil Twilight 5:53 AM FJT 6:20 PM FJT
Nautical Twilight 5:28 AM FJT 6:45 PM FJT
Astronomical Twilight 5:03 AM FJT 7:10 PM FJT
Moon 12:25 AM FJT 11:54 AM FJT
Length of Visible Light 12h 26m
Length of Day
11h 42m
Last Quarter, 44% of the Moon is Illuminated
Aug 29
Last Quarter
Sep 5
New
Sep 13
First Quarter
Sep 19
Full
Sep 27
Last Quarter

Hourly Weather History & Observations

Time (FJT) Temp. Dew Point Humidity Pressure Visibility Wind Dir Wind Speed Gust Speed Precip Events Conditions
12:00 AM 71 °F 70 °F 94% 30.03 in 12 mi Calm Calm - -   Partly Cloudy
12:00 AM 71.6 °F 69.8 °F 94% 30.01 in 6.2 mi Calm Calm - N/A   Mostly Cloudy
1:00 AM 71.6 °F 69.8 °F 94% 30.01 in 6.2 mi Calm Calm - N/A   Mostly Cloudy
2:00 AM 71.6 °F 69.8 °F 94% 29.98 in 6.2 mi Calm Calm - N/A   Mostly Cloudy
3:00 AM 71 °F 70 °F 95% 29.98 in 12 mi Calm Calm - -   Partly Cloudy
3:00 AM 71.6 °F 69.8 °F 94% 29.98 in 6.2 mi Calm Calm - N/A   Mostly Cloudy
4:00 AM 71.6 °F 69.8 °F 94% 29.98 in 6.2 mi Calm Calm - N/A   Mostly Cloudy
5:00 AM 71.6 °F 69.8 °F 94% 29.98 in 6.2 mi Calm Calm - N/A   Mostly Cloudy
6:00 AM 71 °F 69 °F 92% 29.99 in 12 mi Calm Calm - -   Partly Cloudy
6:00 AM 71.6 °F 69.8 °F 94% 29.98 in 6.2 mi Calm Calm - N/A   Mostly Cloudy
7:00 AM 71.6 °F 69.8 °F 94% 30.01 in 6.2 mi Calm Calm - N/A   Scattered Clouds
8:00 AM 71.6 °F 69.8 °F 94% 30.04 in 6.2 mi Calm Calm - N/A   Scattered Clouds
9:00 AM 78 °F 68 °F 65% 30.05 in 31 mi East 9.2 mph - -   Partly Cloudy
9:00 AM 78.8 °F 68.0 °F 69% 30.04 in 6.2 mi East 9.2 mph - N/A   Mostly Cloudy
10:00 AM 78.8 °F 68.0 °F 69% 30.04 in 6.2 mi East 9.2 mph - N/A   Mostly Cloudy
12:00 PM 77 °F 66 °F 61% 30.01 in 31 mi East 6.9 mph - -   Partly Cloudy
12:00 PM 77.0 °F 66.2 °F 69% 30.01 in 6.2 mi East 6.9 mph - N/A   Scattered Clouds
1:00 PM 77.0 °F 66.2 °F 69% 29.98 in 6.2 mi ESE 10.4 mph - N/A   Scattered Clouds
2:00 PM 77.0 °F 64.4 °F 65% 29.95 in 6.2 mi East 8.1 mph - N/A   Mostly Cloudy
3:00 PM 76 °F 66 °F 64% 29.95 in 31 mi East 5.8 mph - -   Partly Cloudy
3:00 PM 77.0 °F 66.2 °F 69% 29.95 in 6.2 mi East 5.8 mph - N/A   Mostly Cloudy
4:00 PM 77.0 °F 64.4 °F 65% 29.92 in 6.2 mi SE 5.8 mph - N/A   Mostly Cloudy
5:00 PM 75.2 °F 66.2 °F 73% 29.95 in 6.2 mi East 3.5 mph - N/A   Mostly Cloudy
6:00 PM 74 °F 66 °F 71% 29.97 in 31 mi SE 3.5 mph - -   Partly Cloudy
6:00 PM 75.2 °F 66.2 °F 73% 29.95 in 6.2 mi SE 3.5 mph - N/A   Mostly Cloudy
7:00 PM 71.6 °F 68.0 °F 88% 29.98 in 6.2 mi Calm Calm - N/A   Mostly Cloudy
8:00 PM 73.4 °F 69.8 °F 88% 29.98 in 6.2 mi Calm Calm - N/A   Mostly Cloudy
9:00 PM 73 °F 70 °F 89% 30.01 in 12 mi Calm Calm - -   Partly Cloudy
9:00 PM 73.4 °F 69.8 °F 88% 30.01 in 6.2 mi Calm Calm - N/A   Mostly Cloudy
10:00 PM 73.4 °F 69.8 °F 88% 30.01 in 6.2 mi Calm Calm - N/A   Mostly Cloudy
11:00 PM 73.4 °F 71.6 °F 94% 29.98 in 6.2 mi Calm Calm - N/A   Mostly Cloudy